Milan, NH

7:13 PM EST on February 19, 2017 (GMT -0500)
Berlin Municipal

Weather History for KBML - July, 2013

Change the Weather History Date:

Wednesday, July 24, 2013

  Actual Average Record
Temperature  
Mean Temperature 62 °F -  
Max Temperature 70 °F 74 °F 89 °F (2001)
Min Temperature 55 °F 48 °F 42 °F (1997)
Degree Days  
Heating Degree Days 3    
Growing Degree Days 12 (Base 50)    
Moisture  
Dew Point 58 °F    
Average Humidity 88    
Maximum Humidity 100    
Minimum Humidity 56    
Precipitation  
Precipitation 0.22 in - - ()
Sea Level Pressure  
Sea Level Pressure 29.71 in    
Wind  
Wind Speed 2 mph (North)    
Max Wind Speed 10 mph    
Max Gust Speed 18 mph    
Visibility 5 miles    
Events Fog , Rain , Thunderstorm    
Averages and records for this station are not official NWS values.
T = Trace of Precipitation, MM = Missing Value Source: NWS Daily Summary

Daily Weather History Graph

Daily Weather History Graph

Search for Another Location

Airport or City:

Trip Planner

Search our weather history database for the weather conditions in past years. The results will help you decide how hot, cold, wet, or windy it might be!

Date:

Astronomy

Jul. 24, 2013 Rise Set
Actual Time 5:22 AM EDT 8:19 PM EDT
Civil Twilight 4:48 AM EDT 8:53 PM EDT
Nautical Twilight 4:04 AM EDT 9:36 PM EDT
Astronomical Twilight 3:12 AM EDT 10:28 PM EDT
Moon 9:13 PM EDT (7/24) 7:47 AM EDT (7/24)
Length of Visible Light 16h 04m
Length of Day
14h 56m
Waning Gibbous, 95% of the Moon is Illuminated
Jul 24
Waning Gibbous
Jul 29
Last Quarter
Aug 6
New
Aug 14
First Quarter
Aug 20
Full

Hourly Weather History & Observations

Time (EDT) Temp. Dew Point Humidity Pressure Visibility Wind Dir Wind Speed Gust Speed Precip Events Conditions
12:02 AM 62.6 °F 62.6 °F 100% 29.61 in 0.5 mi Calm Calm - N/A Fog Fog
12:27 AM 64.4 °F 62.6 °F 94% 29.61 in 0.2 mi Calm Calm - N/A Fog Fog
12:52 AM 63.0 °F 63.0 °F 100% 29.60 in 0.2 mi Calm Calm - N/A Fog Fog
1:28 AM 62.6 °F 62.6 °F 100% 29.60 in 0.2 mi Calm Calm - N/A Fog Fog
1:52 AM 62.1 °F 62.1 °F 100% 29.60 in 0.2 mi Calm Calm - N/A Fog Fog
2:37 AM 60.8 °F 60.8 °F 100% 29.60 in 0.2 mi Calm Calm - N/A Fog Fog
2:52 AM 61.0 °F 60.1 °F 97% 29.59 in 0.2 mi Calm Calm - N/A Fog Fog
3:05 AM 60.8 °F 60.8 °F 100% 29.61 in 0.2 mi SE 3.5 mph - 0.01 in Fog Fog
3:25 AM 60.8 °F 60.8 °F 100% 29.61 in 0.2 mi Calm Calm - 0.01 in Fog Fog
3:52 AM 61.0 °F 60.1 °F 97% 29.61 in 0.2 mi Calm Calm - 0.01 in Fog Fog
4:12 AM 60.8 °F 60.8 °F 100% 29.61 in 0.2 mi Calm Calm - N/A Fog Fog
4:29 AM 59.0 °F 59.0 °F 100% 29.61 in 1.0 mi SSE 3.5 mph - N/A   Mist
4:33 AM 59.0 °F 59.0 °F 100% 29.61 in 2.0 mi SE 3.5 mph - N/A   Overcast
4:52 AM 59.0 °F 57.9 °F 96% 29.61 in 4.0 mi Calm Calm - N/A   Overcast
4:59 AM 59.0 °F 57.2 °F 94% 29.62 in 1.8 mi Calm Calm - N/A   Overcast
5:02 AM 59.0 °F 59.0 °F 100% 29.61 in 1.0 mi Calm Calm - N/A   Mist
5:09 AM 59.0 °F 59.0 °F 100% 29.61 in 0.5 mi Calm Calm - N/A Fog Fog
5:18 AM 59.0 °F 59.0 °F 100% 29.62 in 0.2 mi Calm Calm - N/A Fog Fog
5:50 AM 60.8 °F 59.0 °F 94% 29.62 in 0.2 mi Calm Calm - N/A Fog Fog
5:52 AM 60.1 °F 59.0 °F 96% 29.61 in 0.2 mi Calm Calm - N/A Fog Fog
6:11 AM 60.8 °F 60.8 °F 100% 29.63 in 0.2 mi Calm Calm - N/A Fog , Thunderstorm Fog
6:16 AM 60.8 °F 60.8 °F 100% 29.64 in 1.0 mi West 3.5 mph - N/A Thunderstorm Overcast
6:22 AM 60.8 °F 60.8 °F 100% 29.64 in 1.0 mi Calm Calm - 0.10 in Rain , Thunderstorm Heavy Rain
6:30 AM 60.8 °F 60.8 °F 100% 29.64 in 1.0 mi SE 8.1 mph - 0.15 in Rain , Thunderstorm Heavy Thunderstorms and Rain
6:35 AM 60.8 °F 60.8 °F 100% 29.64 in 2.0 mi ESE 9.2 mph - 0.17 in Rain , Thunderstorm Thunderstorms and Rain
6:45 AM 60.8 °F 60.8 °F 100% 29.62 in 5.0 mi ENE 4.6 mph - 0.18 in Rain , Thunderstorm Rain
6:52 AM 62.1 °F 61.0 °F 96% 29.61 in 8.0 mi East 5.8 mph - 0.18 in Rain Light Rain
7:45 AM 62.6 °F 62.6 °F 100% 29.63 in 7.0 mi Calm Calm - 0.00 in   Scattered Clouds
7:52 AM 64.0 °F 63.0 °F 96% 29.63 in 8.0 mi Calm Calm - 0.00 in   Partly Cloudy
8:52 AM 68.0 °F 64.9 °F 90% 29.65 in 10.0 mi Calm Calm - N/A   Mostly Cloudy
9:37 AM 69.8 °F 64.4 °F 83% 29.68 in 10.0 mi Calm Calm - N/A   Overcast
9:52 AM 69.1 °F 63.0 °F 81% 29.67 in 10.0 mi Variable 5.8 mph - 0.00 in Rain Light Rain
9:59 AM 68.0 °F 62.6 °F 83% 29.68 in 10.0 mi Variable 3.5 mph - 0.00 in Rain Light Rain
10:52 AM 64.9 °F 63.0 °F 93% 29.71 in 3.0 mi Variable 3.5 mph - 0.03 in Rain Light Rain
11:17 AM 64.4 °F 60.8 °F 88% 29.73 in 10.0 mi Variable 3.5 mph - 0.00 in   Overcast
11:52 AM 66.0 °F 60.1 °F 81% 29.75 in 10.0 mi NW 6.9 mph - 0.00 in   Overcast
12:52 PM 64.9 °F 57.9 °F 78% 29.78 in 10.0 mi Variable 4.6 mph - N/A   Overcast
1:52 PM 68.0 °F 57.0 °F 68% 29.79 in 10.0 mi WNW 9.2 mph 17.3 mph N/A   Overcast
2:52 PM 69.1 °F 55.0 °F 61% 29.80 in 10.0 mi NNW 10.4 mph 17.3 mph N/A   Scattered Clouds
3:52 PM 68.0 °F 52.0 °F 56% 29.82 in 10.0 mi Variable 6.9 mph - N/A   Clear
4:52 PM 66.0 °F 51.1 °F 59% 29.84 in 10.0 mi NNW 10.4 mph 18.4 mph N/A   Mostly Cloudy
5:52 PM 63.0 °F 48.9 °F 60% 29.87 in 10.0 mi Variable 5.8 mph 16.1 mph N/A   Overcast
6:52 PM 60.1 °F 48.9 °F 67% 29.93 in 10.0 mi NW 8.1 mph - N/A   Overcast
7:40 PM 57.2 °F 48.2 °F 72% 29.94 in 10.0 mi Variable 3.5 mph - N/A   Overcast
7:52 PM 57.9 °F 48.0 °F 70% 29.96 in 10.0 mi NW 3.5 mph - N/A   Overcast
8:52 PM 57.0 °F 48.9 °F 74% 29.99 in 10.0 mi Variable 3.5 mph - N/A   Overcast
9:52 PM 55.9 °F 48.0 °F 75% 30.03 in 10.0 mi Calm Calm - N/A   Overcast
10:01 PM 55.4 °F 48.2 °F 77% 30.03 in 10.0 mi Calm Calm - N/A   Overcast
10:52 PM 55.0 °F 46.9 °F 74% 30.04 in 10.0 mi Calm Calm - N/A   Overcast
11:52 PM 55.0 °F 46.9 °F 74% 30.05 in 10.0 mi Calm Calm - N/A   Overcast